Time,TemperatureF,DewpointF,PressureIn,WindDirection,WindDirectionDegrees,WindSpeedMPH,WindSpeedGustMPH,Humidity,HourlyPrecipIn,Conditions,Clouds,dailyrainin,SoftwareType,DateUTC
2013-02-21 00:01:00,35.0,24.0,30.17,NE,35,0.0,0.0,63,0.00,,,0.20,,2013-02-21 06:01:00,
2013-02-21 00:11:00,35.0,24.0,30.17,North,10,5.0,5.0,63,0.00,,,0.00,,2013-02-21 06:11:00,
2013-02-21 00:21:00,35.0,24.0,30.17,North,10,5.0,5.0,63,0.00,,,0.00,,2013-02-21 06:21:00,
2013-02-21 00:31:00,35.0,24.0,30.17,North,10,5.0,5.0,63,0.00,,,0.00,,2013-02-21 06:31:00,
2013-02-21 00:41:00,35.0,24.0,30.17,North,10,5.0,5.0,63,0.00,,,0.00,,2013-02-21 06:41:00,
2013-02-21 00:51:00,35.0,24.0,30.17,North,10,5.0,5.0,63,0.00,,,0.00,,2013-02-21 06:51:00,
2013-02-21 01:11:00,35.0,24.0,30.17,NNE,30,5.0,0.0,64,0.00,,,0.00,,2013-02-21 07:11:00,
2013-02-21 01:21:00,35.0,24.0,30.17,NNE,30,5.0,0.0,64,0.00,,,0.00,,2013-02-21 07:21:00,
2013-02-21 01:32:00,35.0,24.0,30.17,North,7,7.0,0.0,65,0.00,,,0.00,,2013-02-21 07:32:00,
2013-02-21 01:42:00,35.0,24.0,30.17,NNE,27,0.0,0.0,65,0.00,,,0.00,,2013-02-21 07:42:00,
2013-02-21 01:52:00,35.0,24.0,30.17,NNE,27,0.0,0.0,65,0.00,,,0.00,,2013-02-21 07:52:00,
2013-02-21 02:01:00,35.0,24.0,30.17,NNE,27,0.0,0.0,65,0.00,,,0.00,,2013-02-21 08:01:00,
2013-02-21 02:11:00,35.0,24.0,30.17,NNE,27,0.0,0.0,65,0.00,,,0.00,,2013-02-21 08:11:00,
2013-02-21 02:21:00,35.0,24.0,30.17,NNE,27,0.0,0.0,65,0.00,,,0.00,,2013-02-21 08:21:00,
2013-02-21 02:32:00,33.0,24.0,30.16,NNE,25,2.0,0.0,68,0.00,,,0.00,,2013-02-21 08:32:00,
2013-02-21 02:42:00,32.0,23.0,30.15,NNE,25,4.0,5.0,68,0.00,,,0.00,,2013-02-21 08:42:00,
2013-02-21 02:52:00,32.0,23.0,30.15,NNE,25,4.0,5.0,68,0.00,,,0.00,,2013-02-21 08:52:00,
2013-02-21 03:01:00,32.0,23.0,30.15,North,359,0.0,0.0,68,0.00,,,0.00,,2013-02-21 09:01:00,
2013-02-21 03:11:00,32.0,23.0,30.15,North,359,0.0,0.0,68,0.00,,,0.00,,2013-02-21 09:11:00,
2013-02-21 03:22:00,32.0,23.0,30.16,NNE,13,0.0,0.0,69,0.00,,,0.00,,2013-02-21 09:22:00,
2013-02-21 03:31:00,32.0,23.0,30.15,North,10,4.0,0.0,68,0.00,,,0.00,,2013-02-21 09:31:00,
2013-02-21 03:41:00,32.0,23.0,30.15,NNE,14,0.0,1.0,68,0.00,,,0.00,,2013-02-21 09:41:00,
2013-02-21 03:51:00,32.0,23.0,30.15,NNE,14,0.0,1.0,68,0.00,,,0.00,,2013-02-21 09:51:00,
2013-02-21 04:01:00,32.0,23.0,30.15,NNE,27,0.0,5.0,68,0.00,,,0.00,,2013-02-21 10:01:00,
2013-02-21 04:11:00,32.0,23.0,30.15,NNE,27,0.0,5.0,68,0.00,,,0.00,,2013-02-21 10:11:00,
2013-02-21 04:21:00,32.0,23.0,30.14,NNE,15,3.0,5.0,68,0.00,,,0.00,,2013-02-21 10:21:00,
2013-02-21 04:31:00,32.0,23.0,30.14,ENE,66,0.0,0.0,69,0.00,,,0.00,,2013-02-21 10:31:00,
2013-02-21 04:41:00,32.0,23.0,30.14,North,359,0.0,0.0,69,0.00,,,0.00,,2013-02-21 10:41:00,
2013-02-21 04:51:00,32.0,23.0,30.14,North,359,0.0,0.0,69,0.00,,,0.00,,2013-02-21 10:51:00,
2013-02-21 05:01:00,32.0,23.0,30.15,North,8,2.0,7.0,70,0.00,,,0.00,,2013-02-21 11:01:00,
2013-02-21 05:11:00,32.0,23.0,30.15,North,8,2.0,7.0,70,0.00,,,0.00,,2013-02-21 11:11:00,
2013-02-21 05:21:00,32.0,23.0,30.15,North,8,2.0,7.0,70,0.00,,,0.00,,2013-02-21 11:21:00,
2013-02-21 05:31:00,32.0,23.0,30.15,North,8,2.0,7.0,70,0.00,,,0.00,,2013-02-21 11:31:00,
2013-02-21 05:41:00,32.0,23.0,30.15,North,8,2.0,7.0,70,0.00,,,0.00,,2013-02-21 11:41:00,
2013-02-21 07:12:00,31.0,23.0,30.16,NNE,27,0.0,5.0,72,0.00,,,0.00,,2013-02-21 13:12:00,
2013-02-21 07:22:00,31.0,23.0,30.16,NNE,27,0.0,5.0,72,0.00,,,0.00,,2013-02-21 13:22:00,
2013-02-21 07:32:00,33.0,25.0,30.15,NNE,25,2.0,5.0,72,0.00,,,0.00,,2013-02-21 13:32:00,
2013-02-21 07:42:00,33.0,25.0,30.15,NNE,25,2.0,5.0,72,0.00,,,0.00,,2013-02-21 13:42:00,
2013-02-21 07:52:00,33.0,25.0,30.15,NNE,25,2.0,5.0,72,0.00,,,0.00,,2013-02-21 13:52:00,
2013-02-21 08:02:00,33.0,25.0,30.15,NNE,25,2.0,5.0,72,0.00,,,0.00,,2013-02-21 14:02:00,
2013-02-21 08:11:00,33.0,25.0,30.15,NNE,25,2.0,5.0,72,0.00,,,0.00,,2013-02-21 14:11:00,
2013-02-21 08:21:00,37.0,26.0,30.14,NE,51,0.0,0.0,64,0.00,,,0.00,,2013-02-21 14:21:00,
2013-02-21 08:32:00,38.0,27.0,30.15,NE,37,0.0,0.0,63,0.00,,,0.00,,2013-02-21 14:32:00,
2013-02-21 08:42:00,40.0,26.0,30.15,NE,53,4.0,6.0,58,0.00,,,0.00,,2013-02-21 14:42:00,
2013-02-21 08:52:00,40.0,26.0,30.15,NE,53,4.0,6.0,58,0.00,,,0.00,,2013-02-21 14:52:00,
2013-02-21 09:01:00,40.0,26.0,30.14,ENE,59,4.0,4.0,56,0.00,,,0.00,,2013-02-21 15:01:00,
2013-02-21 09:12:00,43.0,27.0,30.14,SSE,162,1.0,0.0,52,0.00,,,0.00,,2013-02-21 15:12:00,
2013-02-21 09:21:00,43.0,27.0,30.14,SSE,162,1.0,0.0,52,0.00,,,0.00,,2013-02-21 15:21:00,
2013-02-21 09:31:00,45.0,28.0,30.12,ENE,68,4.0,5.0,51,0.00,,,0.00,,2013-02-21 15:31:00,
2013-02-21 09:42:00,45.0,28.0,30.12,ENE,68,4.0,5.0,51,0.00,,,0.00,,2013-02-21 15:42:00,
2013-02-21 09:52:00,46.0,27.0,30.11,East,89,6.0,6.0,48,0.00,,,0.00,,2013-02-21 15:52:00,
2013-02-21 10:01:00,46.0,27.0,30.10,East,93,6.0,8.0,47,0.00,,,0.00,,2013-02-21 16:01:00,
2013-02-21 10:12:00,47.0,26.0,30.10,ESE,108,1.0,0.0,44,0.00,,,0.00,,2013-02-21 16:12:00,
2013-02-21 10:21:00,47.0,26.0,30.10,ESE,108,1.0,0.0,44,0.00,,,0.00,,2013-02-21 16:21:00,
2013-02-21 10:32:00,50.0,27.0,30.10,ENE,66,0.0,0.0,40,0.00,,,0.00,,2013-02-21 16:32:00,
2013-02-21 10:42:00,52.0,27.0,30.08,East,91,1.0,3.0,37,0.00,,,0.00,,2013-02-21 16:42:00,
2013-02-21 10:52:00,52.0,27.0,30.08,East,91,1.0,3.0,37,0.00,,,0.00,,2013-02-21 16:52:00,
2013-02-21 11:01:00,54.0,25.0,30.07,ESE,108,1.0,0.0,32,0.00,,,0.00,,2013-02-21 17:01:00,
2013-02-21 11:11:00,56.0,26.0,30.06,SE,138,1.0,0.0,31,0.00,,,0.00,,2013-02-21 17:11:00,
2013-02-21 11:21:00,56.0,26.0,30.06,SE,138,1.0,0.0,31,0.00,,,0.00,,2013-02-21 17:21:00,
2013-02-21 11:32:00,57.0,27.0,30.05,ESE,118,0.0,0.0,31,0.00,,,0.00,,2013-02-21 17:32:00,
2013-02-21 11:42:00,58.0,27.0,30.05,ENE,65,1.0,6.0,30,0.00,,,0.00,,2013-02-21 17:42:00,
2013-02-21 11:52:00,58.0,27.0,30.05,ENE,65,1.0,6.0,30,0.00,,,0.00,,2013-02-21 17:52:00,
2013-02-21 12:01:00,58.0,25.0,30.04,SE,138,2.0,0.0,28,0.00,,,0.00,,2013-02-21 18:01:00,
2013-02-21 12:11:00,58.0,26.0,30.03,ESE,104,0.0,0.0,29,0.00,,,0.00,,2013-02-21 18:11:00,
2013-02-21 12:22:00,58.0,26.0,30.03,ESE,104,0.0,0.0,29,0.00,,,0.00,,2013-02-21 18:22:00,
2013-02-21 12:31:00,58.0,28.0,30.02,East,87,0.0,0.0,31,0.00,,,0.00,,2013-02-21 18:31:00,
2013-02-21 12:42:00,58.0,28.0,30.02,East,87,0.0,0.0,31,0.00,,,0.00,,2013-02-21 18:42:00,
2013-02-21 12:52:00,57.0,29.0,30.00,SE,131,1.0,0.0,34,0.00,,,0.00,,2013-02-21 18:52:00,
2013-02-21 13:01:00,56.0,29.0,29.98,East,93,0.0,0.0,35,0.00,,,0.00,,2013-02-21 19:01:00,
2013-02-21 13:12:00,56.0,29.0,29.98,East,93,0.0,0.0,35,0.00,,,0.00,,2013-02-21 19:12:00,
2013-02-21 13:21:00,56.0,29.0,29.96,ESE,114,7.0,7.0,35,0.00,,,0.00,,2013-02-21 19:21:00,
2013-02-21 13:31:00,56.0,29.0,29.94,SSE,150,6.0,6.0,36,0.00,,,0.00,,2013-02-21 19:31:00,
2013-02-21 13:41:00,56.0,29.0,29.94,SSE,150,6.0,6.0,36,0.00,,,0.00,,2013-02-21 19:41:00,
2013-02-21 13:51:00,56.0,30.0,29.92,East,79,2.0,7.0,37,0.00,,,0.00,,2013-02-21 19:51:00,
2013-02-21 14:01:00,56.0,30.0,29.91,SE,136,1.0,6.0,37,0.00,,,0.00,,2013-02-21 20:01:00,
2013-02-21 14:11:00,56.0,29.0,29.91,ESE,115,4.0,6.0,36,0.00,,,0.00,,2013-02-21 20:11:00,
2013-02-21 14:21:00,56.0,29.0,29.91,ESE,115,4.0,6.0,36,0.00,,,0.00,,2013-02-21 20:21:00,
2013-02-21 14:31:00,56.0,30.0,29.88,East,82,0.0,0.0,37,0.00,,,0.00,,2013-02-21 20:31:00,
2013-02-21 14:41:00,56.0,30.0,29.88,East,82,0.0,0.0,37,0.00,,,0.00,,2013-02-21 20:41:00,
2013-02-21 14:52:00,56.0,31.0,29.87,ENE,69,2.0,7.0,38,0.00,,,0.00,,2013-02-21 20:52:00,
2013-02-21 15:02:00,57.0,32.0,29.85,ENE,59,5.0,7.0,38,0.00,,,0.00,,2013-02-21 21:02:00,
2013-02-21 15:11:00,57.0,31.0,29.83,SE,134,5.0,0.0,37,0.00,,,0.00,,2013-02-21 21:11:00,
2013-02-21 15:21:00,57.0,31.0,29.83,SE,134,5.0,0.0,37,0.00,,,0.00,,2013-02-21 21:21:00,
2013-02-21 15:31:00,57.0,34.0,29.90,South,172,3.0,5.0,42,0.00,,,0.00,,2013-02-21 21:31:00,
2013-02-21 15:42:00,55.0,36.0,29.91,SSE,148,0.0,0.0,48,0.00,,,0.00,,2013-02-21 21:42:00,
2013-02-21 15:52:00,55.0,36.0,29.91,SSE,148,0.0,0.0,48,0.00,,,0.00,,2013-02-21 21:52:00,
2013-02-21 16:01:00,53.0,39.0,29.93,SW,215,0.0,0.0,59,0.00,,,0.00,,2013-02-21 22:01:00,
2013-02-21 16:21:00,50.0,41.0,29.90,SW,215,0.0,0.0,71,0.08,,,0.00,,2013-02-21 22:21:00,
2013-02-21 16:31:00,48.0,40.0,29.92,SW,215,0.0,0.0,75,0.08,,,0.00,,2013-02-21 22:31:00,
2013-02-21 16:42:00,48.0,42.0,29.87,ENE,59,5.0,5.0,80,0.08,,,0.00,,2013-02-21 22:42:00,
2013-02-21 16:52:00,48.0,42.0,29.87,ENE,59,5.0,5.0,80,0.08,,,0.00,,2013-02-21 22:52:00,
2013-02-21 17:01:00,47.0,42.0,29.88,ENE,69,5.0,0.0,84,0.08,,,0.00,,2013-02-21 23:01:00,
2013-02-21 17:11:00,47.0,42.0,29.88,ENE,69,5.0,0.0,84,0.08,,,0.00,,2013-02-21 23:11:00,
2013-02-21 17:21:00,47.0,43.0,29.89,ESE,117,0.0,5.0,85,0.10,,,0.00,,2013-02-21 23:21:00,
2013-02-21 17:32:00,47.0,43.0,29.89,SSE,159,0.0,3.0,87,0.10,,,0.00,,2013-02-21 23:32:00,
2013-02-21 17:41:00,47.0,43.0,29.89,SSE,159,0.0,3.0,87,0.10,,,0.00,,2013-02-21 23:41:00,
2013-02-21 17:52:00,47.0,44.0,29.90,East,79,0.0,0.0,90,0.10,,,0.00,,2013-02-21 23:52:00,
2013-02-21 18:01:00,47.0,45.0,29.88,SE,124,8.0,8.0,92,0.10,,,0.00,,2013-02-22 00:01:00,
2013-02-21 18:11:00,47.0,45.0,29.88,SE,124,8.0,8.0,92,0.10,,,0.00,,2013-02-22 00:11:00,
2013-02-21 18:21:00,47.0,45.0,29.88,SE,141,7.0,7.0,94,0.17,,,0.00,,2013-02-22 00:21:00,
2013-02-21 18:31:00,47.0,46.0,29.91,SE,132,0.0,0.0,95,0.17,,,0.00,,2013-02-22 00:31:00,
2013-02-21 18:41:00,47.0,46.0,29.91,SE,132,0.0,0.0,95,0.17,,,0.00,,2013-02-22 00:41:00,
2013-02-21 18:52:00,47.0,46.0,29.98,WNW,301,3.0,5.0,95,0.17,,,0.00,,2013-02-22 00:52:00,
2013-02-21 19:01:00,46.0,45.0,29.94,NW,309,0.0,0.0,96,0.17,,,0.00,,2013-02-22 01:01:00,
2013-02-21 19:11:00,46.0,45.0,29.94,NW,309,0.0,0.0,96,0.17,,,0.00,,2013-02-22 01:11:00,
2013-02-21 19:21:00,46.0,45.0,29.94,ESE,121,2.0,0.0,97,0.12,,,0.00,,2013-02-22 01:21:00,
2013-02-21 19:32:00,46.0,45.0,29.94,SSE,152,0.0,0.0,97,0.12,,,0.00,,2013-02-22 01:32:00,
2013-02-21 19:42:00,47.0,46.0,29.94,SE,145,0.0,0.0,98,0.12,,,0.00,,2013-02-22 01:42:00,
2013-02-21 19:51:00,47.0,46.0,29.94,SE,145,0.0,0.0,98,0.12,,,0.00,,2013-02-22 01:51:00,
2013-02-21 20:02:00,47.0,47.0,29.94,SSE,148,5.0,5.0,99,0.12,,,0.00,,2013-02-22 02:02:00,
2013-02-21 20:11:00,47.0,47.0,29.94,East,83,7.0,7.0,99,0.19,,,0.00,,2013-02-22 02:11:00,
2013-02-21 20:21:00,47.0,47.0,29.94,East,83,7.0,7.0,99,0.19,,,0.00,,2013-02-22 02:21:00,
2013-02-21 20:31:00,47.0,47.0,29.94,SSE,150,8.0,8.0,100,0.19,,,0.00,,2013-02-22 02:31:00,
2013-02-21 20:42:00,47.0,47.0,29.94,SE,127,6.0,6.0,100,0.19,,,0.00,,2013-02-22 02:42:00,
2013-02-21 20:52:00,47.0,47.0,29.94,SE,127,6.0,6.0,100,0.19,,,0.00,,2013-02-22 02:52:00,
2013-02-21 21:01:00,47.0,47.0,29.93,ESE,113,7.0,9.0,100,0.19,,,0.00,,2013-02-22 03:01:00,
2013-02-21 21:11:00,47.0,47.0,29.93,ESE,117,6.0,6.0,100,0.18,,,0.00,,2013-02-22 03:11:00,
2013-02-21 21:21:00,47.0,47.0,29.93,ESE,117,6.0,6.0,100,0.18,,,0.00,,2013-02-22 03:21:00,
2013-02-21 21:31:00,47.0,47.0,29.93,SE,131,1.0,8.0,100,0.18,,,0.00,,2013-02-22 03:31:00,
2013-02-21 21:41:00,47.0,47.0,29.93,SE,131,1.0,8.0,100,0.18,,,0.00,,2013-02-22 03:41:00,
2013-02-21 21:52:00,48.0,48.0,29.90,SE,125,8.0,10.0,99,0.18,,,0.00,,2013-02-22 03:52:00,
2013-02-21 22:01:00,48.0,48.0,29.91,SE,129,9.0,9.0,99,0.18,,,0.00,,2013-02-22 04:01:00,
2013-02-21 22:11:00,48.0,47.0,29.90,South,170,7.0,7.0,98,0.00,,,0.00,,2013-02-22 04:11:00,
2013-02-21 22:21:00,48.0,47.0,29.90,South,170,7.0,7.0,98,0.00,,,0.00,,2013-02-22 04:21:00,
2013-02-21 22:32:00,48.0,47.0,29.89,ENE,60,9.0,9.0,98,0.00,,,0.00,,2013-02-22 04:32:00,
2013-02-21 22:42:00,48.0,48.0,29.89,ESE,114,9.0,9.0,99,0.00,,,0.00,,2013-02-22 04:42:00,
2013-02-21 22:52:00,48.0,48.0,29.89,ESE,114,9.0,9.0,99,0.00,,,0.00,,2013-02-22 04:52:00,
2013-02-21 23:01:00,48.0,48.0,29.90,SE,132,5.0,7.0,99,0.00,,,0.00,,2013-02-22 05:01:00,
2013-02-21 23:12:00,49.0,49.0,29.90,SE,138,8.0,8.0,99,0.00,,,0.00,,2013-02-22 05:12:00,
2013-02-21 23:22:00,49.0,49.0,29.90,SE,138,8.0,8.0,99,0.00,,,0.00,,2013-02-22 05:22:00,
2013-02-21 23:32:00,49.0,49.0,29.90,SE,138,7.0,7.0,100,0.00,,,0.00,,2013-02-22 05:32:00,
2013-02-21 23:41:00,49.0,49.0,29.91,SE,127,7.0,10.0,100,0.00,,,0.00,,2013-02-22 05:41:00,
2013-02-21 23:52:00,49.0,49.0,29.91,SE,127,7.0,10.0,100,0.00,,,0.00,,2013-02-22 05:52:00,